Temperature
11 11 11 10 10 9 9 9 8 8 8 7 6 6 5 4 3 3 3 2 2 1 0 -0 -1 -2 -2 -3 -4 -5 -6 -6 -6 -6 -6 -6 -7 -7 -7 -7 -7 -7 -7
11 10 10 10 9 8 8 8 8 7 7 6 5 5 4 3 3 2 2 1 1 0 -0 -1 -2 -3 -3 -4 -5 -6 -6 -7 -7 -7 -7 -7 -7 -7 -7 -7 -7 -7 -8
10 10 9 9 8 8 8 8 7 7 6 5 4 4 3 3 2 2 1 1 0 -0 -1 -2 -2 -3 -4 -5 -6 -7 -7 -7 -8 -8 -8 -7 -7 -7 -7 -7 -7 -8 -8
9 9 8 8 8 8 7 7 6 6 5 4 3 3 2 2 1 1 0 -0 -1 -1 -2 -3 -3 -4 -5 -6 -7 -7 -8 -8 -8 -8 -8 -7 -7 -7 -7 -8 -8 -8 -8
8 8 8 7 7 7 7 6 5 5 4 3 3 2 2 1 1 0 -1 -1 -2 -2 -3 -4 -5 -5 -6 -7 -8 -8 -8 -8 -8 -8 -8 -8 -8 -8 -8 -8 -9 -9 -9
8 7 7 7 7 6 6 5 4 3 3 2 2 1 1 0 -0 -0 -1 -2 -3 -3 -4 -5 -6 -6 -7 -8 -8 -9 -9 -9 -8 -8 -8 -8 -8 -8 -9 -9 -9 -9 -9
7 7 7 6 6 5 5 4 3 2 2 1 1 1 0 -0 -1 -1 -2 -2 -4 -4 -5 -6 -7 -7 -8 -8 -9 -9 -9 -8 -8 -9 -9 -9 -9 -9 -9 -9 -9 -9 -9
7 6 6 6 5 4 3 3 2 1 1 1 0 -0 -0 -1 -1 -2 -2 -4 -4 -5 -6 -7 -7 -8 -9 -9 -9 -9 -9 -9 -9 -9 -9 -9 -10 -9 -9 -10 -10 -10 -10
6 6 5 4 4 3 2 2 1 1 0 -0 -0 -1 -1 -1 -2 -3 -3 -5 -6 -6 -7 -7 -8 -9 -9 -9 -9 -9 -9 -9 -9 -9 -10 -9 -9 -9 -9 -10 -10 -10 -10
5 5 4 3 3 2 1 1 0 -0 -0 -1 -1 -1 -2 -2 -3 -3 -4 -6 -7 -8 -8 -8 -8 -9 -9 -9 -9 -9 -9 -9 -10 -10 -9 -9 -9 -9 -9 -10 -10 -10 -11
4 3 3 2 1 1 0 -0 -0 -1 -1 -1 -1 -2 -3 -3 -4 -4 -5 -7 -8 -8 -8 -9 -9 -9 -9 -9 -9 -10 -10 -10 -10 -10 -9 -9 -9 -9 -8 -8 -9 -10 -11
3 2 2 1 1 0 -0 -1 -1 -1 -2 -2 -2 -3 -3 -4 -5 -5 -6 -8 -9 -9 -9 -9 -9 -10 -10 -10 -10 -10 -10 -10 -10 -9 -9 -9 -9 -8 -8 -8 -7 -8 -8
2 1 1 0 -0 -1 -1 -1 -2 -2 -2 -3 -3 -4 -4 -5 -6 -7 -8 -9 -9 -9 -10 -10 -10 -10 -10 -9 -9 -9 -10 -10 -10 -10 -10 -9 -8 -8 -8 -7 -7 -7 -7
1 1 0 -0 -1 -1 -2 -2 -2 -3 -3 -4 -5 -6 -6 -7 -8 -8 -9 -9 -10 -10 -10 -10 -10 -10 -9 -9 -9 -9 -9 -10 -10 -10 -9 -9 -8 -8 -8 -8 -8 -8 -7
0 -0 -1 -1 -1 -2 -2 -2 -3 -3 -4 -5 -6 -7 -8 -8 -9 -9 -10 -10 -10 -10 -10 -10 -10 -10 -10 -10 -10 -10 -9 -9 -9 -9 -9 -9 -8 -8 -8 -8 -8 -8 -8
-0 -1 -1 -2 -2 -2 -3 -3 -3 -4 -5 -6 -7 -7 -8 -9 -9 -10 -10 -10 -10 -11 -11 -11 -11 -10 -10 -10 -10 -9 -9 -9 -9 -9 -9 -9 -9 -8 -8 -8 -8 -9 -9
-1 -1 -2 -2 -2 -3 -3 -4 -4 -4 -5 -6 -7 -8 -8 -9 -9 -10 -10 -11 -10 -10 -10 -10 -10 -10 -10 -10 -10 -10 -9 -9 -9 -9 -8 -8 -8 -8 -8 -8 -8 -8 -8
-2 -2 -2 -3 -3 -4 -4 -5 -5 -6 -6 -7 -7 -8 -8 -8 -9 -10 -10 -10 -10 -10 -10 -11 -11 -10 -10 -10 -10 -10 -9 -9 -8 -8 -8 -8 -8 -8 -8 -8 -8 -8 -9
-2 -3 -3 -3 -4 -4 -5 -5 -6 -7 -8 -8 -8 -9 -9 -9 -9 -10 -10 -10 -11 -11 -11 -11 -10 -10 -10 -10 -10 -9 -9 -8 -8 -8 -8 -8 -8 -8 -8 -8 -8 -8 -8
-3 -3 -4 -4 -5 -5 -6 -6 -7 -8 -9 -9 -10 -10 -10 -10 -10 -10 -10 -11 -11 -11 -11 -10 -10 -10 -10 -9 -9 -9 -8 -8 -8 -8 -8 -8 -8 -8 -8 -8 -8 -8 -8
-3 -4 -4 -5 -5 -6 -7 -7 -8 -9 -9 -10 -10 -10 -11 -11 -11 -11 -11 -11 -11 -11 -11 -10 -10 -9 -9 -9 -9 -8 -8 -8 -8 -8 -8 -8 -8 -8 -8 -8 -8 -8 -8
-4 -4 -5 -5 -6 -7 -8 -8 -9 -9 -10 -10 -10 -10 -11 -11 -11 -11 -11 -11 -11 -10 -10 -10 -9 -9 -9 -9 -8 -8 -8 -8 -8 -8 -8 -8 -8 -8 -8 -8 -8 -8 -8
-5 -5 -6 -6 -7 -8 -8 -9 -9 -10 -10 -10 -11 -11 -11 -11 -11 -11 -11 -11 -10 -10 -10 -9 -9 -8 -8 -8 -8 -8 -8 -8 -8 -7 -7 -7 -7 -8 -8 -8 -8 -8 -8
-5 -6 -6 -7 -8 -8 -9 -9 -10 -10 -10 -11 -11 -11 -11 -11 -11 -11 -11 -10 -10 -9 -9 -9 -8 -8 -8 -8 -8 -7 -7 -7 -7 -7 -7 -7 -7 -7 -7 -8 -8 -8 -8
-6 -6 -7 -8 -8 -9 -9 -10 -10 -10 -11 -11 -11 -11 -11 -11 -11 -11 -10 -10 -9 -9 -9 -8 -8 -8 -8 -7 -7 -7 -7 -7 -7 -7 -7 -7 -7 -7 -7 -7 -7 -7 -7
-6 -7 -8 -8 -9 -9 -10 -10 -10 -11 -11 -11 -11 -11 -11 -11 -11 -10 -10 -10 -9 -9 -8 -8 -8 -8 -7 -7 -7 -7 -7 -7 -7 -7 -7 -7 -7 -7 -7 -7 -7 -7 -7
Wind_Speed
19 19 19 18 17 16 14 15 14 14 12 11 9 8 6 4 3 2 2 2 4 5 6 7 8 9 8 9 9 10 12 13 18 19 16 17 20 20 19 21 22 23 23
18 19 19 18 17 16 15 15 14 13 11 10 8 7 5 3 2 2 2 4 5 6 7 8 9 8 11 10 10 12 12 14 17 22 19 18 21 21 20 21 18 19 21
19 19 19 18 17 17 16 15 13 12 11 9 7 6 4 2 1 2 4 5 6 8 8 9 10 11 12 11 12 13 13 14 15 18 20 18 18 17 20 20 20 18 19
19 19 19 17 17 16 15 14 12 11 10 8 6 4 3 1 2 3 5 7 8 9 9 9 10 11 13 14 13 14 15 16 17 17 18 18 18 19 18 18 18 17 17
19 18 17 17 16 16 14 13 11 10 8 7 5 3 1 1 2 5 7 8 9 10 10 10 11 13 16 15 14 15 16 16 16 16 18 18 18 18 18 17 18 19 20
18 18 17 17 16 15 13 12 11 9 7 5 3 2 1 2 4 8 9 10 10 10 11 12 12 13 15 19 21 21 21 19 18 18 17 19 22 21 19 18 19 20 20
18 18 17 16 15 14 12 11 9 7 6 4 2 1 2 3 6 9 11 11 11 10 12 12 11 12 16 15 18 21 22 24 23 20 21 21 21 20 21 22 21 21 21
18 17 16 15 14 13 11 10 8 5 4 2 1 2 4 4 7 10 12 12 10 11 12 13 14 15 14 17 18 19 19 18 19 17 18 20 20 20 20 20 21 21 20
17 16 15 14 13 12 10 8 6 4 2 1 1 3 5 6 7 11 13 11 10 12 12 13 14 15 19 22 20 19 19 18 18 20 23 24 27 27 22 16 16 16 18
16 15 14 13 12 11 9 7 4 3 1 1 2 4 5 7 8 11 13 9 11 11 12 13 16 17 20 23 19 18 19 18 17 18 19 19 18 19 20 15 13 14 16
15 14 13 11 10 9 7 5 3 1 0 2 4 5 6 7 8 10 13 10 11 12 12 12 12 19 22 24 22 17 18 19 18 16 15 15 14 13 13 13 12 12 14
15 14 12 10 8 7 6 4 2 0 2 4 5 6 5 6 7 10 15 15 15 14 13 12 14 22 24 24 19 18 21 19 12 12 12 13 13 13 13 15 16 16 15
14 12 11 9 7 6 4 3 1 1 3 4 5 6 7 7 8 12 14 16 17 14 13 18 21 23 21 17 16 19 16 11 10 11 12 13 13 14 15 14 16 15 17
13 11 9 8 6 4 3 2 1 3 4 5 6 7 8 8 8 9 11 13 15 13 13 17 20 19 16 15 15 12 9 10 11 12 13 13 14 13 13 13 13 14 13
12 9 8 6 5 3 2 2 2 2 4 7 7 8 9 10 11 17 15 12 12 13 15 12 11 11 10 10 10 11 10 10 11 11 12 13 13 13 13 12 12 13 13
10 7 5 4 3 2 2 2 1 3 6 8 9 10 10 13 18 18 18 18 19 19 14 10 10 10 11 11 12 12 12 11 11 12 12 12 13 13 14 13 12 12 13
9 7 5 4 3 2 3 4 5 4 5 7 9 12 13 16 17 18 18 19 17 15 9 8 9 10 11 11 11 12 13 13 12 12 12 12 12 13 13 13 13 13 13
8 6 5 3 2 2 3 4 5 7 8 8 9 12 15 17 17 17 17 15 10 9 7 9 10 10 11 11 12 12 13 13 12 12 12 12 12 12 13 13 13 14 14
6 4 4 3 2 3 3 4 5 6 7 9 9 10 14 16 16 15 14 8 9 9 9 10 10 11 11 11 12 12 13 13 13 13 12 13 12 12 12 13 13 17 15
5 6 4 3 3 3 4 5 5 7 8 8 9 10 11 13 10 11 10 9 9 9 10 11 11 11 11 12 12 12 12 13 13 12 12 12 12 12 13 14 13 13 13
4 4 4 3 3 4 4 5 6 7 7 8 9 11 15 11 10 11 10 10 10 10 11 11 11 12 11 11 11 12 14 13 12 12 12 12 12 12 12 12 13 13 12
3 3 3 3 3 4 5 5 6 7 8 9 9 11 15 10 9 9 10 10 11 10 10 11 11 11 11 11 12 12 13 14 13 12 12 13 13 13 13 12 11 11 11
3 3 2 3 3 5 5 5 6 7 8 9 9 10 10 9 10 10 11 11 11 11 11 11 12 12 12 11 12 12 13 14 13 14 14 14 13 12 11 11 12 12 11
3 2 3 3 4 5 5 6 6 7 8 9 9 9 10 10 11 12 12 11 12 12 11 11 12 16 19 16 13 14 14 15 15 14 17 14 13 11 10 9 10 10 10
2 2 3 4 4 5 6 6 7 7 8 8 9 9 10 10 11 11 11 11 13 13 15 14 12 13 17 20 19 17 21 25 23 14 10 9 10 10 9 9 8 9 8
2 3 3 4 4 5 5 6 7 8 8 8 9 9 10 10 11 11 12 11 12 13 14 13 15 18 21 19 20 22 25 24 20 16 9 7 8 8 9 7 8 8 8
Wind_Direction
145 141 139 138 138 137 135 134 134 134 136 137 138 140 142 148 162 200 245 267 283 289 289 291 294 296 294 293 290 286 284 285 289 295 299 302 302 300 299 298 296 295 294
139 137 136 136 136 134 132 133 133 133 134 135 137 139 140 150 185 243 270 279 287 292 294 294 296 299 296 294 292 289 288 288 290 296 299 302 301 302 300 300 300 298 296
136 134 134 135 134 133 132 132 131 130 131 133 137 138 143 161 224 268 282 287 288 289 292 294 297 300 298 298 297 293 291 291 290 293 298 301 301 302 304 302 302 301 299
135 134 134 134 132 130 129 129 129 130 132 134 134 134 145 191 254 279 287 289 289 289 289 289 292 295 298 300 297 295 295 296 295 295 296 300 303 305 306 306 306 305 302
132 130 129 128 126 126 126 126 127 126 127 130 134 141 170 254 284 300 297 292 292 292 291 289 289 292 294 295 295 298 300 298 296 296 297 302 304 307 308 309 306 306 302
129 127 127 127 126 126 126 127 126 126 129 134 140 160 243 287 309 302 304 300 295 293 295 297 297 294 295 298 299 299 296 294 295 296 298 299 301 304 307 306 305 305 305
126 125 127 127 126 126 127 128 129 131 135 144 157 242 289 307 308 308 308 302 296 296 298 299 300 299 303 302 301 299 295 292 291 293 294 295 299 303 303 303 303 301 299
124 125 127 127 126 128 128 128 129 132 141 155 210 291 300 306 312 312 312 302 296 295 297 300 301 303 305 306 304 301 299 297 295 293 292 293 293 295 297 298 299 297 294
126 127 129 129 129 130 130 129 130 137 146 186 280 295 300 307 315 314 315 308 300 300 301 300 300 300 303 307 306 304 303 301 300 298 294 291 292 295 296 297 296 297 298
126 126 126 127 128 128 127 126 127 136 150 282 290 294 299 306 313 313 318 308 305 305 303 301 300 303 307 310 310 308 306 308 309 305 300 298 297 295 295 290 291 293 296
121 119 119 119 119 120 120 121 125 128 284 302 301 302 299 302 308 313 316 313 310 308 306 305 304 308 310 312 313 307 305 308 306 304 304 303 302 301 301 299 295 288 288
118 115 114 114 112 115 118 119 115 27 315 314 311 313 308 307 304 314 317 314 312 308 306 306 307 311 313 314 312 308 309 310 305 305 304 303 305 305 304 302 297 289 279
116 114 112 110 108 113 115 113 85 342 325 319 316 314 316 317 317 318 317 315 314 310 305 306 309 311 315 313 309 311 312 308 306 305 303 302 303 302 301 301 300 297 292
117 115 116 115 113 108 97 71 3 340 327 319 318 317 318 317 320 324 322 319 317 314 311 310 311 311 311 308 310 311 310 305 306 301 301 301 302 302 302 304 305 308 306
115 115 114 111 111 101 74 29 341 331 323 321 322 320 317 316 321 323 320 318 318 316 317 311 310 314 316 317 316 315 313 311 309 305 303 303 304 305 305 307 304 304 301
117 115 111 107 96 70 20 346 272 300 320 320 321 321 316 314 319 321 322 321 321 322 318 309 312 314 315 316 316 315 314 312 310 308 304 302 302 304 305 306 305 303 302
113 112 107 98 79 41 3 344 334 322 311 318 326 329 326 324 325 325 326 326 323 323 316 312 312 310 310 309 308 307 307 308 308 304 301 300 301 301 302 303 305 305 304
104 100 97 87 62 25 359 344 335 331 329 329 331 331 332 332 328 329 332 330 324 327 319 312 309 308 306 305 305 304 304 305 305 303 301 300 299 299 300 301 302 304 305
101 98 90 75 46 14 353 338 331 327 323 322 324 329 336 331 328 331 336 330 322 319 315 310 306 304 302 301 301 301 300 300 300 301 299 298 298 299 298 299 300 302 304
93 86 75 56 29 5 349 339 333 329 326 325 327 332 333 330 329 331 331 324 318 313 311 308 305 302 300 299 299 299 299 298 299 298 298 298 298 297 296 298 299 302 304
92 83 63 41 19 356 341 336 332 327 326 325 324 327 330 327 322 321 320 319 316 312 309 306 303 301 299 297 297 297 297 296 296 296 296 296 297 298 297 296 298 300 302
81 68 43 21 360 346 339 334 328 325 324 323 322 324 327 325 318 317 316 314 311 307 304 302 299 297 296 295 295 296 295 294 295 295 295 296 296 296 295 296 300 306 311
72 55 27 3 347 337 333 331 328 324 321 321 320 321 322 321 319 316 313 312 311 308 306 302 299 297 297 296 294 290 288 287 289 290 291 292 292 294 297 303 308 314 318
59 30 2 347 338 333 330 328 325 322 321 319 318 317 317 316 314 312 311 309 309 307 305 304 299 297 298 301 298 294 287 286 287 284 283 282 291 300 307 313 316 323 323
37 5 346 338 331 327 324 322 320 320 317 314 313 313 313 313 311 310 310 309 309 307 307 307 302 302 303 304 302 299 297 300 304 306 304 308 312 316 318 320 325 328 331
8 346 335 329 324 321 318 316 315 315 312 310 309 308 308 308 307 307 308 308 310 310 309 308 305 307 307 306 304 306 310 317 326 334 334 322 323 329 333 332 334 337 340
Height
1423 1429 1436 1443 1450 1457 1463 1469 1474 1478 1481 1484 1485 1486 1486 1485 1485 1483 1482 1480 1477 1475 1472 1469 1465 1462 1458 1454 1451 1447 1443 1438 1428 1420 1419 1415 1410 1405 1400 1395 1389 1383 1377
1421 1428 1436 1443 1450 1456 1463 1468 1473 1477 1479 1481 1483 1483 1483 1482 1481 1480 1478 1475 1473 1470 1467 1463 1460 1456 1452 1449 1445 1441 1437 1432 1425 1414 1410 1407 1403 1398 1393 1387 1381 1375 1369
1422 1429 1436 1443 1450 1456 1463 1468 1472 1475 1477 1479 1480 1480 1480 1479 1477 1476 1474 1471 1468 1465 1461 1458 1454 1450 1446 1443 1439 1435 1430 1426 1420 1412 1404 1400 1395 1391 1385 1379 1374 1367 1361
1422 1429 1436 1444 1450 1457 1462 1467 1470 1473 1475 1477 1477 1477 1476 1475 1473 1471 1469 1466 1463 1460 1456 1452 1448 1445 1441 1437 1433 1429 1425 1420 1415 1408 1400 1394 1389 1384 1379 1372 1364 1359 1352
1423 1431 1438 1445 1451 1457 1462 1466 1469 1471 1473 1474 1475 1474 1473 1471 1469 1467 1464 1461 1458 1454 1450 1447 1442 1438 1434 1431 1427 1423 1419 1414 1409 1403 1396 1389 1383 1378 1373 1366 1358 1350 1344
1425 1433 1440 1446 1452 1457 1462 1465 1468 1470 1471 1472 1472 1471 1470 1468 1465 1462 1459 1456 1452 1448 1445 1441 1437 1433 1429 1425 1421 1417 1414 1409 1403 1398 1391 1385 1378 1373 1367 1360 1353 1345 1335
1428 1436 1442 1448 1453 1458 1461 1464 1467 1468 1469 1469 1469 1467 1466 1463 1461 1457 1453 1450 1446 1443 1439 1434 1431 1427 1423 1418 1414 1410 1407 1403 1399 1394 1386 1379 1373 1367 1361 1354 1347 1340 1332
1432 1438 1444 1449 1454 1458 1461 1463 1465 1466 1467 1466 1465 1464 1462 1459 1456 1452 1448 1444 1441 1437 1433 1429 1425 1421 1417 1413 1408 1404 1400 1395 1391 1386 1380 1373 1367 1361 1356 1350 1342 1332 1324
1435 1441 1446 1451 1455 1458 1461 1463 1464 1464 1464 1463 1462 1460 1457 1454 1451 1447 1443 1439 1435 1432 1428 1424 1420 1416 1412 1408 1403 1397 1392 1387 1383 1377 1372 1366 1360 1354 1349 1342 1335 1328 1318
1438 1443 1448 1452 1456 1458 1460 1462 1462 1462 1462 1460 1458 1455 1452 1449 1446 1442 1438 1434 1430 1427 1423 1419 1415 1411 1407 1402 1398 1391 1385 1379 1374 1368 1363 1358 1353 1347 1342 1337 1331 1323 1314
1441 1445 1449 1453 1456 1458 1460 1460 1460 1460 1459 1457 1455 1451 1448 1445 1441 1438 1434 1430 1426 1422 1418 1414 1410 1406 1401 1396 1391 1385 1379 1373 1367 1362 1356 1351 1346 1341 1336 1331 1325 1318 1310
1443 1447 1451 1454 1456 1458 1459 1459 1458 1457 1455 1453 1450 1447 1444 1440 1436 1432 1429 1426 1422 1418 1413 1408 1404 1399 1394 1389 1383 1378 1373 1368 1362 1356 1351 1345 1339 1334 1329 1323 1318 1311 1304
1446 1449 1452 1454 1456 1457 1457 1457 1455 1454 1452 1449 1446 1443 1440 1436 1432 1428 1424 1421 1417 1413 1408 1403 1398 1392 1387 1381 1377 1372 1367 1363 1357 1352 1346 1340 1335 1329 1322 1316 1309 1303 1297
1448 1451 1453 1454 1455 1456 1455 1454 1453 1450 1448 1445 1442 1438 1435 1432 1428 1424 1420 1416 1412 1407 1402 1397 1392 1386 1381 1376 1372 1367 1363 1359 1353 1348 1341 1335 1329 1323 1317 1311 1303 1296 1288
1450 1452 1453 1454 1454 1454 1453 1452 1450 1447 1445 1442 1438 1435 1431 1427 1424 1420 1416 1411 1407 1402 1397 1392 1387 1382 1377 1372 1368 1363 1359 1354 1349 1343 1337 1331 1325 1319 1313 1307 1300 1293 1285
1451 1452 1453 1453 1453 1452 1451 1449 1447 1445 1442 1438 1434 1431 1426 1423 1418 1414 1410 1406 1401 1397 1392 1387 1383 1378 1373 1368 1364 1359 1354 1350 1345 1339 1333 1328 1321 1315 1308 1302 1297 1290 1282
1451 1452 1452 1452 1452 1450 1449 1447 1444 1442 1439 1435 1431 1427 1423 1418 1414 1409 1405 1400 1396 1392 1387 1383 1379 1375 1370 1365 1361 1356 1350 1346 1341 1335 1330 1324 1318 1312 1305 1299 1293 1287 1280
1452 1452 1452 1451 1450 1448 1446 1444 1441 1438 1435 1431 1427 1423 1418 1414 1409 1405 1400 1395 1392 1388 1384 1380 1376 1372 1367 1363 1358 1353 1347 1342 1337 1332 1326 1321 1315 1308 1302 1296 1290 1284 1277
1451 1451 1450 1449 1448 1446 1444 1441 1438 1435 1431 1427 1423 1419 1414 1409 1405 1401 1397 1393 1388 1385 1381 1377 1373 1369 1364 1360 1355 1350 1345 1339 1334 1328 1323 1317 1311 1305 1299 1293 1287 1281 1276
1451 1450 1449 1448 1446 1444 1441 1439 1435 1432 1428 1424 1420 1415 1410 1406 1402 1398 1394 1390 1386 1382 1378 1374 1370 1366 1362 1357 1352 1347 1341 1336 1331 1325 1320 1314 1308 1302 1296 1291 1285 1279 1274
1450 1449 1448 1446 1444 1442 1439 1436 1433 1429 1426 1422 1418 1413 1408 1404 1400 1396 1392 1388 1384 1380 1376 1371 1367 1363 1359 1354 1349 1343 1338 1333 1328 1322 1317 1311 1305 1300 1294 1288 1283 1278 1272
1450 1448 1447 1445 1442 1440 1437 1434 1431 1427 1423 1419 1415 1411 1407 1402 1398 1394 1390 1386 1382 1378 1374 1369 1364 1360 1356 1351 1345 1340 1335 1329 1324 1319 1313 1308 1302 1297 1291 1286 1281 1276 1271
1449 1447 1445 1443 1440 1438 1435 1432 1428 1425 1421 1417 1413 1408 1404 1400 1396 1392 1388 1384 1380 1376 1372 1367 1362 1357 1353 1348 1343 1338 1332 1326 1321 1316 1310 1304 1299 1294 1290 1285 1281 1276 1271
1447 1445 1443 1441 1438 1436 1433 1429 1426 1422 1419 1415 1411 1407 1402 1398 1394 1391 1386 1382 1378 1374 1369 1365 1360 1355 1351 1346 1341 1335 1330 1324 1318 1312 1307 1302 1298 1294 1289 1285 1280 1276 1271
1445 1443 1441 1439 1436 1433 1430 1427 1424 1420 1416 1412 1408 1404 1400 1396 1393 1389 1384 1380 1376 1372 1367 1363 1358 1353 1348 1344 1339 1333 1328 1323 1317 1312 1307 1303 1298 1293 1289 1285 1280 1276 1272
1444 1441 1439 1436 1434 1431 1427 1424 1421 1417 1414 1410 1406 1402 1398 1395 1391 1387 1383 1378 1374 1369 1365 1361 1356 1352 1347 1342 1337 1331 1326 1321 1316 1311 1306 1301 1297 1293 1289 1285 1281 1277 1273